QPF
0.00 0.00 0.00 0.00 0.00 0.00 0.00 0.00 0.00 0.00 0.00 0.00 0.00 0.00 0.00 0.00 0.00 0.00 0.00 0.00 0.00 0.00 0.00 0.00 0.00 0.00 0.00 0.00 0.00 0.00 0.00 0.00 0.00 0.00 0.00 0.00 0.00 0.00 0.00 0.00 0.00 0.00 0.00
0.00 0.00 0.00 0.00 0.00 0.00 0.00 0.00 0.00 0.00 0.00 0.00 0.00 0.00 0.00 0.00 0.00 0.00 0.00 0.00 0.00 0.00 0.00 0.00 0.00 0.00 0.00 0.00 0.00 0.00 0.00 0.00 0.00 0.00 0.00 0.00 0.00 0.00 0.00 0.00 0.00 0.00 0.00
0.00 0.00 0.00 0.00 0.00 0.00 0.00 0.00 0.00 0.00 0.00 0.00 0.00 0.00 0.00 0.00 0.00 0.00 0.00 0.00 0.00 0.00 0.00 0.00 0.00 0.00 0.00 0.00 0.00 0.00 0.00 0.00 0.00 0.00 0.00 0.00 0.00 0.00 0.00 0.00 0.00 0.00 0.00
0.00 0.00 0.00 0.00 0.00 0.00 0.00 0.00 0.00 0.00 0.00 0.00 0.00 0.00 0.00 0.00 0.00 0.00 0.00 0.00 0.00 0.00 0.00 0.00 0.00 0.00 0.00 0.00 0.00 0.00 0.00 0.00 0.00 0.00 0.00 0.00 0.00 0.00 0.00 0.00 0.00 0.00 0.00
0.00 0.00 0.00 0.00 0.00 0.00 0.00 0.00 0.00 0.00 0.00 0.00 0.00 0.00 0.00 0.00 0.00 0.00 0.00 0.00 0.00 0.00 0.00 0.00 0.00 0.00 0.00 0.00 0.00 0.00 0.00 0.00 0.00 0.00 0.00 0.00 0.00 0.00 0.00 0.00 0.00 0.00 0.00
0.00 0.00 0.00 0.00 0.00 0.00 0.00 0.00 0.00 0.00 0.00 0.00 0.00 0.00 0.00 0.00 0.00 0.00 0.00 0.00 0.00 0.00 0.00 0.00 0.00 0.00 0.00 0.00 0.00 0.00 0.00 0.00 0.00 0.00 0.00 0.00 0.00 0.00 0.00 0.00 0.00 0.00 0.00
0.00 0.00 0.00 0.00 0.00 0.00 0.00 0.00 0.00 0.00 0.00 0.00 0.00 0.00 0.00 0.00 0.00 0.00 0.00 0.00 0.00 0.00 0.00 0.00 0.00 0.00 0.00 0.00 0.00 0.00 0.00 0.00 0.00 0.00 0.00 0.00 0.00 0.00 0.00 0.00 0.00 0.00 0.00
0.00 0.00 0.00 0.00 0.00 0.00 0.00 0.00 0.00 0.00 0.00 0.00 0.00 0.00 0.00 0.00 0.00 0.00 0.00 0.00 0.00 0.00 0.00 0.00 0.00 0.00 0.00 0.00 0.00 0.00 0.00 0.00 0.00 0.00 0.00 0.00 0.00 0.00 0.00 0.00 0.00 0.00 0.00
0.00 0.00 0.00 0.00 0.00 0.00 0.00 0.00 0.00 0.00 0.00 0.00 0.00 0.00 0.00 0.00 0.00 0.00 0.00 0.00 0.00 0.00 0.00 0.00 0.00 0.00 0.00 0.00 0.00 0.00 0.00 0.00 0.00 0.00 0.00 0.00 0.00 0.00 0.00 0.00 0.00 0.00 0.00
0.00 0.00 0.00 0.00 0.00 0.00 0.00 0.00 0.00 0.00 0.00 0.00 0.00 0.00 0.00 0.00 0.00 0.00 0.00 0.00 0.00 0.00 0.00 0.00 0.00 0.00 0.00 0.00 0.00 0.00 0.00 0.00 0.00 0.00 0.00 0.00 0.00 0.00 0.00 0.00 0.00 0.00 0.00
0.00 0.00 0.00 0.00 0.00 0.00 0.00 0.00 0.00 0.00 0.00 0.00 0.00 0.00 0.00 0.00 0.00 0.00 0.00 0.00 0.00 0.00 0.00 0.00 0.00 0.00 0.00 0.00 0.00 0.00 0.00 0.00 0.00 0.00 0.00 0.00 0.00 0.00 0.00 0.00 0.00 0.00 0.00
0.00 0.00 0.00 0.00 0.00 0.00 0.00 0.00 0.00 0.00 0.00 0.00 0.00 0.00 0.00 0.00 0.00 0.00 0.00 0.00 0.00 0.00 0.00 0.00 0.00 0.00 0.00 0.00 0.00 0.00 0.00 0.00 0.00 0.00 0.00 0.00 0.00 0.00 0.00 0.00 0.00 0.00 0.00
0.00 0.00 0.00 0.00 0.00 0.00 0.00 0.00 0.00 0.00 0.00 0.00 0.00 0.00 0.00 0.00 0.00 0.00 0.00 0.00 0.00 0.00 0.00 0.00 0.00 0.00 0.00 0.00 0.00 0.00 0.00 0.00 0.00 0.00 0.00 0.00 0.00 0.00 0.00 0.00 0.00 0.00 0.00
0.00 0.00 0.00 0.00 0.00 0.00 0.00 0.00 0.00 0.00 0.00 0.00 0.00 0.00 0.00 0.00 0.00 0.00 0.00 0.00 0.00 0.00 0.00 0.00 0.00 0.00 0.00 0.00 0.00 0.00 0.00 0.00 0.00 0.00 0.00 0.00 0.00 0.00 0.00 0.00 0.00 0.00 0.00
0.00 0.00 0.00 0.00 0.00 0.00 0.00 0.00 0.00 0.00 0.00 0.00 0.00 0.00 0.00 0.00 0.00 0.00 0.00 0.00 0.00 0.00 0.00 0.00 0.00 0.00 0.00 0.00 0.00 0.00 0.00 0.00 0.00 0.00 0.00 0.00 0.00 0.00 0.00 0.00 0.00 0.00 0.00
0.00 0.00 0.00 0.00 0.00 0.00 0.00 0.00 0.00 0.00 0.00 0.00 0.00 0.00 0.00 0.00 0.00 0.00 0.00 0.00 0.00 0.00 0.00 0.00 0.00 0.00 0.00 0.00 0.00 0.00 0.00 0.00 0.00 0.00 0.00 0.00 0.00 0.00 0.00 0.00 0.00 0.00 0.00
0.00 0.00 0.00 0.00 0.00 0.00 0.00 0.00 0.00 0.00 0.00 0.00 0.00 0.00 0.00 0.00 0.00 0.00 0.00 0.00 0.00 0.00 0.00 0.00 0.00 0.00 0.00 0.00 0.00 0.00 0.00 0.00 0.00 0.00 0.00 0.00 0.00 0.00 0.00 0.00 0.00 0.00 0.00
0.00 0.00 0.00 0.00 0.00 0.00 0.00 0.00 0.00 0.00 0.00 0.00 0.00 0.00 0.00 0.00 0.00 0.00 0.00 0.00 0.00 0.00 0.00 0.00 0.00 0.00 0.00 0.00 0.00 0.00 0.00 0.00 0.00 0.00 0.00 0.00 0.00 0.00 0.00 0.00 0.00 0.00 0.00
0.00 0.00 0.00 0.00 0.00 0.00 0.00 0.00 0.00 0.00 0.00 0.00 0.00 0.00 0.00 0.00 0.00 0.00 0.00 0.00 0.00 0.00 0.00 0.00 0.00 0.00 0.00 0.00 0.00 0.00 0.00 0.00 0.00 0.00 0.00 0.00 0.00 0.00 0.00 0.00 0.00 0.00 0.00
0.00 0.00 0.00 0.00 0.00 0.00 0.00 0.00 0.00 0.00 0.00 0.00 0.00 0.00 0.00 0.00 0.00 0.00 0.00 0.00 0.00 0.00 0.00 0.00 0.00 0.00 0.00 0.00 0.00 0.00 0.00 0.00 0.00 0.00 0.00 0.00 0.00 0.00 0.00 0.00 0.00 0.00 0.00
0.00 0.00 0.00 0.00 0.00 0.00 0.00 0.00 0.00 0.00 0.00 0.00 0.00 0.00 0.00 0.00 0.00 0.00 0.00 0.00 0.00 0.00 0.00 0.00 0.00 0.00 0.00 0.00 0.00 0.00 0.00 0.00 0.00 0.00 0.00 0.00 0.00 0.00 0.00 0.00 0.00 0.00 0.00
0.00 0.00 0.00 0.00 0.00 0.00 0.00 0.00 0.00 0.00 0.00 0.00 0.00 0.00 0.00 0.00 0.00 0.00 0.00 0.00 0.00 0.00 0.00 0.00 0.00 0.00 0.00 0.00 0.00 0.00 0.00 0.00 0.00 0.00 0.00 0.00 0.00 0.00 0.00 0.00 0.00 0.00 0.00
0.00 0.00 0.00 0.00 0.00 0.00 0.00 0.00 0.00 0.00 0.00 0.00 0.00 0.00 0.00 0.00 0.00 0.00 0.00 0.00 0.00 0.00 0.00 0.00 0.00 0.00 0.00 0.00 0.00 0.00 0.00 0.00 0.00 0.00 0.00 0.00 0.00 0.00 0.00 0.00 0.00 0.00 0.00
0.00 0.00 0.00 0.00 0.00 0.00 0.00 0.00 0.00 0.00 0.00 0.00 0.00 0.00 0.00 0.00 0.00 0.00 0.00 0.00 0.00 0.00 0.00 0.00 0.00 0.00 0.00 0.00 0.00 0.00 0.00 0.00 0.00 0.00 0.00 0.00 0.00 0.00 0.00 0.00 0.00 0.00 0.00
0.00 0.00 0.00 0.00 0.00 0.00 0.00 0.00 0.00 0.00 0.00 0.00 0.00 0.00 0.00 0.00 0.00 0.00 0.00 0.00 0.00 0.00 0.00 0.00 0.00 0.00 0.00 0.00 0.00 0.00 0.00 0.00 0.00 0.00 0.00 0.00 0.00 0.00 0.00 0.00 0.00 0.00 0.00
0.00 0.00 0.00 0.00 0.00 0.00 0.00 0.00 0.00 0.00 0.00 0.00 0.00 0.00 0.00 0.00 0.00 0.00 0.00 0.00 0.00 0.00 0.00 0.00 0.00 0.00 0.00 0.00 0.00 0.00 0.00 0.00 0.00 0.00 0.00 0.00 0.00 0.00 0.00 0.00 0.00 0.00 0.00
MSLP
1017.35 1017.54 1017.82 1017.71 1018.02 1018.01 1018.07 1017.89 1017.71 1017.36 1017.16 1017.14 1016.90 1016.73 1016.40 1015.96 1015.78 1015.62 1015.49 1015.75 1016.17 1016.65 1017.17 1017.50 1018.16 1018.77 1019.38 1020.02 1020.45 1020.75 1021.28 1021.90 1023.44 1025.20 1025.55 1026.01 1026.37 1026.41 1026.52 1026.55 1026.82 1027.03 1027.37
1016.98 1017.29 1017.76 1017.74 1017.83 1017.95 1017.87 1017.46 1017.41 1017.13 1017.05 1016.87 1016.82 1016.58 1016.13 1016.10 1015.89 1015.70 1015.86 1016.09 1016.43 1016.86 1017.39 1017.92 1018.49 1019.13 1019.60 1020.06 1020.50 1021.15 1021.75 1022.13 1023.01 1024.65 1025.61 1026.06 1026.24 1026.56 1026.77 1026.79 1027.27 1027.46 1027.72
1016.83 1016.95 1017.54 1017.63 1017.70 1017.57 1017.45 1017.32 1017.14 1017.07 1016.83 1016.75 1016.75 1016.57 1016.32 1016.08 1015.91 1015.83 1016.07 1016.36 1016.74 1017.23 1017.72 1018.21 1018.68 1019.19 1019.84 1020.41 1020.77 1021.45 1021.99 1022.45 1022.94 1023.78 1025.08 1025.84 1026.37 1026.55 1027.10 1027.46 1027.70 1027.95 1028.09
1016.61 1016.80 1017.17 1017.35 1017.33 1017.21 1017.21 1017.10 1016.89 1016.80 1016.73 1016.60 1016.55 1016.45 1016.30 1016.12 1015.85 1016.02 1016.36 1016.76 1017.20 1017.63 1017.98 1018.49 1018.88 1019.42 1019.87 1020.43 1021.06 1021.70 1022.20 1022.84 1023.45 1024.13 1025.15 1026.05 1026.56 1027.09 1027.20 1027.62 1028.11 1028.33 1028.42
1016.23 1016.67 1016.86 1017.02 1016.98 1016.95 1016.85 1016.83 1016.74 1016.70 1016.58 1016.53 1016.54 1016.68 1016.45 1016.21 1016.19 1016.43 1016.70 1017.08 1017.44 1017.95 1018.43 1018.88 1019.27 1019.62 1020.11 1020.60 1021.20 1021.99 1022.35 1023.02 1023.78 1024.44 1025.12 1025.87 1026.66 1027.20 1027.20 1027.35 1027.83 1028.32 1028.85
1016.01 1016.25 1016.66 1016.79 1016.73 1016.74 1016.75 1016.70 1016.60 1016.79 1016.83 1016.77 1016.66 1016.73 1016.50 1016.61 1016.58 1016.64 1017.02 1017.59 1018.08 1018.64 1019.33 1019.70 1019.92 1020.29 1020.75 1021.24 1021.75 1022.21 1022.64 1023.09 1023.55 1024.17 1025.01 1025.62 1026.10 1026.36 1026.72 1027.09 1027.71 1028.40 1029.18
1015.79 1015.92 1016.36 1016.58 1016.71 1016.73 1016.77 1016.72 1016.69 1016.88 1017.06 1017.25 1017.20 1017.07 1017.14 1017.16 1017.08 1017.17 1017.39 1017.95 1018.47 1018.91 1019.53 1020.07 1020.64 1021.05 1021.26 1021.85 1022.53 1023.03 1023.63 1023.78 1023.73 1023.88 1024.45 1025.27 1026.07 1026.51 1026.95 1027.60 1027.79 1028.28 1029.22
1015.36 1015.56 1016.01 1016.49 1016.66 1016.86 1016.95 1016.82 1016.98 1017.14 1017.31 1017.63 1017.88 1017.73 1017.67 1017.86 1017.80 1017.72 1018.03 1018.57 1019.21 1019.75 1020.18 1020.52 1020.90 1021.54 1021.94 1022.33 1022.97 1023.72 1024.58 1024.79 1024.86 1025.01 1025.45 1026.27 1026.38 1026.65 1026.79 1027.03 1027.95 1028.84 1029.65
1015.02 1015.05 1015.44 1016.06 1016.50 1016.76 1016.93 1017.13 1017.32 1017.57 1017.68 1017.94 1018.23 1018.28 1018.29 1018.41 1018.42 1018.51 1018.53 1019.32 1019.97 1020.60 1020.87 1021.27 1021.52 1021.89 1022.49 1022.70 1023.13 1024.33 1025.46 1026.26 1026.39 1026.14 1026.35 1026.78 1027.01 1027.25 1027.27 1027.54 1028.46 1028.85 1029.70
1014.43 1014.70 1014.93 1015.60 1016.25 1016.57 1016.86 1017.27 1017.49 1017.88 1018.29 1018.46 1018.78 1018.90 1019.06 1018.93 1018.97 1019.12 1019.11 1019.67 1020.42 1021.06 1021.65 1022.09 1022.29 1022.46 1023.07 1023.31 1023.78 1024.62 1025.86 1026.96 1026.94 1027.13 1027.62 1027.84 1027.91 1027.98 1027.77 1027.86 1028.28 1028.75 1029.21
1013.88 1014.56 1014.92 1015.34 1015.96 1016.37 1016.90 1017.34 1017.74 1018.06 1018.50 1018.82 1019.10 1019.47 1019.62 1019.39 1019.61 1019.59 1019.76 1020.02 1020.62 1021.41 1022.15 1022.83 1023.22 1023.25 1023.55 1023.89 1024.30 1024.94 1025.61 1026.77 1027.47 1027.79 1028.11 1028.47 1028.71 1028.80 1029.09 1029.12 1028.97 1028.77 1029.34
1013.42 1014.42 1015.02 1015.35 1015.88 1016.39 1016.82 1017.37 1017.78 1018.18 1018.63 1019.30 1019.46 1019.85 1020.05 1020.08 1020.25 1020.31 1020.23 1020.47 1021.08 1021.36 1022.70 1023.34 1023.70 1023.82 1024.05 1024.54 1024.96 1025.65 1026.35 1027.05 1027.56 1028.16 1028.58 1029.35 1029.78 1030.29 1030.53 1030.42 1030.42 1030.58 1030.90
1013.57 1014.31 1015.01 1015.42 1015.90 1016.39 1016.80 1017.35 1017.83 1018.26 1018.76 1019.32 1019.65 1020.09 1020.58 1020.78 1020.94 1021.26 1021.24 1021.35 1021.81 1022.21 1022.97 1023.54 1024.03 1024.46 1024.90 1025.42 1025.88 1026.51 1027.21 1027.49 1028.08 1028.61 1029.38 1030.28 1030.89 1031.31 1031.38 1031.25 1031.52 1031.66 1031.93
1013.60 1014.14 1014.94 1015.38 1015.92 1016.45 1016.82 1017.20 1017.49 1017.95 1018.47 1019.10 1019.58 1020.11 1020.70 1021.16 1021.50 1021.92 1022.22 1022.44 1022.82 1023.22 1023.98 1024.66 1024.87 1025.27 1025.66 1026.43 1027.13 1027.70 1027.95 1028.25 1028.65 1029.17 1030.03 1030.73 1031.23 1031.38 1031.63 1031.89 1032.10 1032.45 1032.69
1013.74 1014.00 1014.63 1015.27 1015.74 1016.23 1016.79 1017.01 1017.36 1017.62 1017.69 1018.18 1018.90 1019.41 1019.96 1020.94 1021.39 1021.70 1022.06 1022.62 1022.95 1023.56 1024.07 1024.70 1025.23 1025.79 1026.44 1027.18 1027.81 1028.23 1028.63 1028.90 1029.31 1029.86 1030.35 1030.95 1031.52 1031.85 1032.33 1032.49 1032.74 1033.00 1033.32
1013.37 1014.01 1014.43 1014.95 1015.62 1016.06 1016.54 1017.12 1017.67 1017.72 1017.99 1018.32 1018.99 1019.18 1019.77 1020.02 1020.70 1021.27 1021.90 1022.69 1023.33 1023.76 1024.20 1024.90 1025.67 1026.14 1026.75 1027.41 1028.06 1028.91 1029.45 1029.62 1029.94 1030.29 1030.82 1031.33 1031.88 1032.53 1033.15 1033.53 1033.69 1033.93 1034.34
1013.09 1013.46 1014.14 1014.55 1015.20 1015.68 1016.22 1016.56 1017.46 1018.47 1018.35 1018.67 1019.28 1019.51 1019.55 1019.88 1021.11 1021.58 1021.85 1022.44 1023.25 1023.76 1024.58 1025.43 1025.92 1026.57 1027.05 1027.73 1028.20 1028.65 1029.40 1030.08 1030.31 1030.74 1031.34 1031.96 1032.51 1033.22 1033.46 1034.15 1034.68 1034.79 1035.36
1012.67 1013.25 1013.65 1014.00 1014.56 1015.13 1015.67 1016.07 1016.87 1017.47 1018.02 1018.78 1019.31 1019.78 1019.86 1020.26 1020.90 1021.59 1022.26 1022.85 1023.59 1024.10 1024.90 1025.66 1026.31 1026.81 1027.34 1027.84 1028.48 1029.07 1029.92 1030.56 1030.93 1031.41 1031.98 1032.55 1033.07 1033.54 1034.16 1034.56 1035.05 1035.33 1035.86
1012.21 1012.87 1013.31 1013.68 1013.99 1014.47 1015.15 1015.74 1016.38 1017.16 1017.95 1018.48 1019.34 1020.02 1020.65 1020.83 1021.24 1021.87 1022.54 1022.66 1023.15 1024.19 1024.96 1025.80 1026.46 1026.94 1027.64 1028.38 1029.04 1029.61 1030.26 1030.98 1031.45 1031.96 1032.61 1033.04 1033.44 1033.98 1035.08 1035.56 1036.08 1036.39 1036.36
1011.93 1012.26 1012.86 1013.36 1013.62 1014.01 1014.58 1015.25 1015.91 1016.72 1017.55 1018.24 1018.89 1019.18 1020.14 1021.10 1021.64 1022.13 1022.63 1023.16 1023.73 1024.19 1024.96 1025.58 1026.45 1027.14 1027.81 1028.57 1029.30 1029.93 1030.70 1031.41 1031.89 1032.38 1033.06 1033.73 1034.28 1034.40 1035.04 1035.79 1036.45 1036.60 1036.82
1011.20 1011.78 1012.30 1012.90 1013.13 1013.43 1013.93 1014.51 1015.17 1015.95 1016.67 1017.52 1018.18 1018.47 1018.81 1019.58 1020.41 1021.25 1022.11 1022.78 1023.51 1024.21 1024.88 1025.68 1026.45 1027.27 1028.15 1028.88 1029.35 1029.95 1030.76 1031.59 1032.11 1032.51 1033.19 1034.06 1034.45 1034.77 1035.25 1035.79 1036.55 1037.02 1037.31
1010.23 1010.93 1011.61 1012.13 1012.56 1012.92 1013.32 1013.87 1014.48 1015.15 1015.89 1016.76 1017.73 1018.29 1018.77 1019.41 1019.97 1020.77 1021.73 1022.52 1023.33 1024.01 1024.69 1025.45 1026.50 1027.23 1027.94 1028.60 1029.28 1029.87 1030.66 1031.48 1032.28 1032.90 1033.26 1033.57 1034.03 1034.82 1035.56 1036.34 1037.05 1037.69 1038.08
1009.41 1009.97 1010.61 1011.22 1011.82 1012.27 1012.80 1013.28 1013.78 1014.41 1015.18 1016.03 1017.00 1017.57 1018.38 1019.21 1019.84 1020.54 1021.51 1022.47 1023.24 1024.15 1024.81 1025.49 1026.48 1027.25 1028.04 1028.59 1029.34 1029.66 1030.14 1030.85 1031.41 1032.05 1032.80 1033.42 1034.19 1035.07 1035.69 1036.49 1037.38 1038.12 1038.39
1008.48 1009.02 1009.56 1010.15 1011.01 1011.53 1011.99 1012.53 1013.11 1013.72 1014.39 1015.22 1016.16 1016.88 1017.64 1018.80 1019.82 1020.66 1021.61 1022.43 1023.12 1023.87 1024.66 1025.30 1026.03 1026.90 1027.75 1028.38 1029.15 1030.09 1030.56 1031.02 1031.58 1032.16 1032.68 1033.60 1034.61 1035.56 1036.17 1037.01 1037.70 1038.18 1038.71
1007.39 1007.98 1008.45 1009.02 1009.74 1010.53 1011.24 1011.77 1012.29 1012.91 1013.64 1014.40 1015.34 1016.31 1017.16 1018.48 1019.64 1020.65 1021.74 1022.54 1023.16 1023.82 1024.53 1025.35 1026.20 1026.87 1027.70 1028.22 1029.17 1030.19 1030.88 1031.42 1032.05 1032.64 1033.05 1033.81 1034.55 1035.36 1036.38 1037.11 1037.88 1038.68 1039.04
1006.02 1006.77 1007.36 1007.91 1008.58 1009.35 1010.06 1010.80 1011.45 1012.04 1012.66 1013.52 1014.45 1015.50 1016.58 1017.92 1019.11 1020.26 1021.29 1022.50 1023.30 1024.09 1024.91 1025.56 1026.14 1027.03 1027.91 1028.51 1029.35 1030.14 1030.89 1031.56 1032.37 1032.92 1033.41 1034.11 1035.06 1036.12 1036.80 1037.64 1038.20 1038.66 1039.25
Thickness
5566 5559 5554 5554 5547 5541 5539 5536 5534 5533 5531 5529 5527 5527 5528 5529 5530 5531 5532 5531 5529 5526 5525 5524 5521 5520 5518 5516 5516 5518 5520 5521 5514 5501 5503 5502 5503 5505 5507 5507 5506 5504 5502
5569 5561 5553 5553 5550 5544 5542 5544 5541 5539 5537 5536 5533 5532 5535 5534 5534 5536 5535 5533 5531 5529 5526 5525 5523 5521 5520 5519 5519 5519 5519 5520 5517 5508 5504 5504 5505 5504 5503 5505 5500 5499 5497
5569 5564 5556 5552 5551 5549 5547 5546 5545 5543 5540 5540 5538 5536 5535 5536 5538 5538 5538 5537 5534 5532 5530 5529 5527 5526 5524 5522 5523 5521 5521 5521 5521 5519 5510 5506 5502 5502 5498 5496 5496 5495 5494
5569 5564 5559 5554 5552 5552 5550 5549 5547 5547 5546 5543 5542 5539 5537 5539 5542 5542 5539 5538 5537 5535 5534 5532 5531 5530 5529 5528 5525 5523 5522 5520 5518 5515 5510 5504 5501 5498 5499 5496 5494 5492 5491
5569 5563 5560 5557 5555 5554 5553 5552 5549 5547 5547 5546 5545 5541 5542 5545 5546 5546 5544 5541 5541 5539 5537 5535 5535 5534 5532 5531 5529 5525 5525 5522 5518 5514 5510 5506 5501 5497 5499 5497 5493 5489 5486
5566 5564 5559 5557 5556 5555 5554 5554 5552 5549 5547 5546 5546 5545 5546 5545 5547 5549 5547 5544 5540 5538 5533 5532 5533 5532 5531 5529 5527 5525 5525 5523 5518 5515 5509 5505 5502 5500 5498 5498 5495 5492 5489
5563 5562 5559 5557 5555 5553 5553 5552 5552 5549 5546 5544 5544 5544 5544 5543 5545 5546 5546 5543 5541 5539 5536 5533 5530 5528 5529 5527 5522 5520 5517 5515 5516 5517 5515 5510 5503 5500 5497 5492 5492 5491 5484
5562 5561 5558 5555 5552 5550 5550 5551 5548 5547 5545 5542 5539 5540 5541 5539 5540 5542 5542 5540 5536 5533 5532 5532 5531 5528 5527 5524 5519 5514 5509 5508 5509 5509 5506 5499 5499 5498 5497 5496 5489 5482 5476
5559 5561 5559 5555 5551 5549 5548 5548 5545 5542 5542 5540 5537 5536 5536 5537 5536 5537 5538 5533 5529 5526 5527 5527 5527 5525 5521 5519 5517 5509 5502 5497 5497 5500 5498 5495 5495 5493 5492 5490 5482 5479 5472
5557 5558 5558 5554 5550 5548 5546 5543 5542 5539 5535 5533 5530 5530 5529 5532 5533 5532 5533 5530 5525 5522 5520 5519 5519 5518 5513 5512 5511 5506 5498 5491 5494 5493 5490 5489 5488 5486 5486 5483 5478 5474 5471
5553 5551 5551 5550 5547 5546 5542 5539 5538 5537 5534 5531 5529 5525 5523 5525 5525 5528 5529 5528 5525 5520 5516 5512 5509 5510 5508 5507 5506 5503 5500 5492 5488 5485 5484 5482 5479 5478 5474 5473 5471 5469 5465
5549 5544 5543 5543 5542 5540 5538 5535 5534 5532 5531 5526 5526 5522 5520 5520 5520 5520 5523 5523 5520 5519 5509 5505 5504 5504 5504 5501 5500 5495 5492 5488 5484 5480 5478 5472 5468 5463 5459 5459 5456 5453 5448
5539 5536 5534 5534 5534 5534 5533 5531 5529 5528 5525 5523 5522 5520 5516 5514 5514 5512 5514 5515 5513 5511 5507 5504 5501 5498 5496 5493 5490 5487 5485 5482 5479 5474 5468 5461 5455 5452 5450 5446 5443 5439 5435
5530 5528 5525 5527 5525 5525 5526 5526 5527 5526 5523 5520 5518 5516 5512 5510 5507 5504 5503 5503 5503 5502 5498 5495 5494 5491 5489 5485 5480 5476 5474 5472 5470 5466 5458 5452 5448 5444 5442 5437 5432 5427 5422
5517 5519 5518 5518 5518 5518 5518 5520 5521 5520 5523 5522 5520 5517 5515 5509 5506 5504 5501 5498 5499 5497 5494 5491 5487 5485 5481 5476 5471 5467 5465 5464 5461 5455 5451 5446 5440 5436 5431 5427 5421 5416 5411
5510 5508 5508 5510 5509 5510 5512 5511 5510 5513 5514 5514 5510 5512 5509 5510 5507 5504 5499 5493 5490 5488 5486 5484 5479 5478 5474 5470 5465 5459 5455 5454 5451 5447 5442 5437 5432 5425 5418 5412 5408 5404 5397
5499 5501 5499 5501 5502 5503 5504 5507 5502 5498 5503 5502 5501 5502 5505 5505 5497 5495 5495 5491 5485 5482 5477 5474 5472 5469 5466 5462 5459 5456 5450 5444 5442 5438 5433 5426 5421 5413 5410 5402 5394 5391 5381
5487 5488 5490 5493 5496 5496 5498 5500 5497 5496 5496 5493 5492 5491 5494 5494 5492 5488 5485 5481 5476 5473 5468 5464 5461 5460 5457 5455 5451 5447 5440 5436 5433 5428 5422 5416 5410 5405 5398 5393 5386 5379 5371
5478 5478 5479 5482 5488 5490 5489 5490 5490 5489 5486 5486 5484 5482 5480 5482 5481 5479 5475 5475 5474 5467 5462 5458 5454 5453 5449 5444 5439 5436 5432 5427 5422 5417 5411 5406 5401 5395 5383 5376 5369 5361 5358
5468 5471 5471 5472 5477 5481 5482 5482 5483 5482 5480 5479 5478 5479 5474 5470 5469 5467 5463 5464 5461 5459 5454 5452 5447 5443 5440 5435 5430 5426 5420 5415 5411 5406 5400 5393 5386 5384 5376 5367 5359 5354 5348
5462 5462 5463 5464 5469 5474 5476 5476 5477 5477 5477 5474 5473 5474 5474 5471 5467 5465 5461 5459 5455 5452 5448 5443 5439 5435 5429 5424 5421 5417 5412 5405 5400 5396 5391 5382 5378 5373 5366 5360 5350 5342 5335
5457 5456 5457 5459 5461 5465 5468 5469 5469 5470 5470 5468 5463 5464 5465 5463 5462 5459 5456 5453 5448 5445 5440 5436 5430 5427 5423 5417 5412 5408 5403 5397 5390 5384 5381 5377 5372 5364 5356 5347 5338 5328 5320
5450 5450 5453 5454 5455 5457 5458 5460 5462 5464 5463 5461 5457 5459 5457 5455 5454 5451 5448 5443 5440 5436 5432 5428 5422 5419 5414 5410 5403 5401 5397 5392 5388 5383 5376 5369 5362 5354 5347 5337 5326 5316 5309
5444 5444 5446 5448 5448 5450 5452 5453 5454 5455 5456 5454 5452 5453 5451 5446 5442 5439 5436 5434 5432 5429 5424 5422 5417 5411 5406 5403 5398 5390 5386 5383 5378 5372 5367 5358 5350 5341 5332 5321 5313 5304 5296
5438 5439 5440 5442 5444 5443 5443 5445 5447 5448 5448 5448 5447 5445 5442 5436 5431 5428 5424 5422 5421 5419 5416 5411 5406 5402 5397 5394 5388 5380 5374 5370 5365 5359 5354 5346 5339 5331 5321 5312 5302 5291 5283
5434 5435 5436 5438 5438 5437 5438 5439 5440 5441 5443 5443 5441 5437 5434 5428 5424 5419 5416 5411 5408 5405 5401 5399 5397 5391 5385 5382 5376 5370 5364 5359 5353 5347 5341 5334 5325 5316 5307 5298 5290 5282 5271